Tracking 34305 objects as of 7-Jun-2026
HD Live streaming from Space Station
objects crossing your sky now

STARLINK-35608

Track STARLINK-35608 now!
10-day predictions
STARLINK-35608 is classified as:


NORAD ID: 66508
Int'l Code: 2025-263Z
Perigee: 489.4 km
Apogee: 491.1 km
Inclination: 43.0 °
Period: 94.3 minutes
Semi major axis: 6861 km
RCS: Unknown
Launch date: November 15, 2025
Source: United States (US)
Launch site: AIR FORCE EASTERN TEST RANGE (AFETR)
Your satellite tracking list
Your tracking list is empty




NASA's NSSDC Master Catalog

Two Line Element Set (TLE):
1 66508U 25263Z   26158.43765049 -.00000678  00000-0 -15131-4 0  9991
2 66508  42.9996 203.9343 0001248 270.2291  89.8418 15.27556602 32628
Source of the keplerian elements: AFSPC